{"data":{"norad_id":55349,"epoch":"2026-09-20T09:38:11.987232Z","epoch_age_seconds":105148,"freshness":"FRESH","line1":"1 55349U 23013U   26263.40152763 -.00020700  00000+0 -74269-3 0  9993","line2":"2 55349  43.0011 283.6460 0001195 201.3899 158.6903 15.27671901201457","mean_motion":15.27671901,"eccentricity":0.0001195,"inclination_deg":43.0011,"raan_deg":283.646,"arg_perigee_deg":201.3899,"mean_anomaly_deg":158.6903,"bstar":-0.00074269,"rev_number":20145,"period_min":94.261077856927,"perigee_km":481.95404632434,"apogee_km":483.59380403545,"semimajor_km":6860.9109251799,"source":"CELESTRAK","updated_at":"2026-09-21T09:00:33.182395Z"}}